DIRECTV 11

Last updated on Sat Aug 15 2026 00:02:57 GMT+0000 (Coordinated Universal Time)

1 32729U 08013A 26226.54829598 -.00000141 00000+0 00000+0 0 9998 2 32729 0.0058 151.3223 0000157 239.0756 30.7529 1.00270266 46178
UTC large
Height (km)
Speed (km/s)
/
Latitude / Longitude
Inclination (degrees)
Orbital Period (minutes)
Azimuth
Elevation
Range (km)
Doppler Factor

Next 0 passes for location: London (51.5072 / 0.1276)

No passes found over London.
DIRECTV 11